![]() |
EMODnet Physics ERDDAP
Easier access to scientific data |
log in|
Brought to you by EMODnet Physics |
| Dataset Title: | NDBC - Collection of dew point temperature (DEWT) TimeSeries - IN SITU MultiPointTimeSeriesObservation
|
| Institution: | NDBC (Dataset ID: TS_DEWT_NDBC) |
| Information: | Summary
| License
| FGDC
| ISO 19115
| Metadata
| Background
| Subset
| Data Access Form
| Make a graph
|
| Name | Last modified | Size | Description | |
|---|---|---|---|---|
| Parent Directory | - | - | ||
| 46121_TS_DEWT_012017.nc | 01-Jan-2025 12:39 | 1477674 | ||
| 46121_TS_DEWT_012019.nc | 01-Jan-2025 12:43 | 1477989 | ||
| 46121_TS_DEWT_012020.nc | 01-Jan-2025 12:45 | 1477823 | ||
| 46121_TS_DEWT_012023.nc | 01-Jan-2025 12:50 | 1477116 | ||
| 46121_TS_DEWT_012025.nc | 07-Feb-2025 10:54 | 1477717 | ||
| 46121_TS_DEWT_022017.nc | 01-Jan-2025 12:39 | 1477553 | ||
| 46121_TS_DEWT_022018.nc | 01-Jan-2025 12:42 | 1476649 | ||
| 46121_TS_DEWT_022019.nc | 01-Jan-2025 12:43 | 1476966 | ||
| 46121_TS_DEWT_022020.nc | 01-Jan-2025 12:45 | 429728 | ||
| 46121_TS_DEWT_022025.nc | 24-Feb-2025 06:39 | 1478038 | ||
| 46121_TS_DEWT_032017.nc | 01-Jan-2025 12:40 | 1627435 | ||
| 46121_TS_DEWT_032019.nc | 01-Jan-2025 12:43 | 1627380 | ||
| 46121_TS_DEWT_032020.nc | 01-Jan-2025 12:45 | 917246 | ||
| 46121_TS_DEWT_042017.nc | 01-Jan-2025 12:40 | 1627806 | ||
| 46121_TS_DEWT_042018.nc | 01-Jan-2025 12:42 | 1627214 | ||
| 46121_TS_DEWT_042019.nc | 01-Jan-2025 12:44 | 1467169 | ||
| 46121_TS_DEWT_042020.nc | 01-Jan-2025 12:46 | 1627575 | ||
| 46121_TS_DEWT_042022.nc | 01-Jan-2025 12:48 | 1475951 | ||
| 46121_TS_DEWT_052017.nc | 01-Jan-2025 12:40 | 1459623 | ||
| 46121_TS_DEWT_052018.nc | 01-Jan-2025 12:42 | 1626189 | ||
| 46121_TS_DEWT_052019.nc | 01-Jan-2025 12:44 | 1626590 | ||
| 46121_TS_DEWT_052020.nc | 01-Jan-2025 12:46 | 1459010 | ||
| 46121_TS_DEWT_052022.nc | 01-Jan-2025 12:48 | 1626306 | ||
| 46121_TS_DEWT_062017.nc | 01-Jan-2025 12:40 | 1627477 | ||
| 46121_TS_DEWT_062018.nc | 01-Jan-2025 12:42 | 1627286 | ||
| 46121_TS_DEWT_062019.nc | 01-Jan-2025 12:44 | 1627778 | ||
| 46121_TS_DEWT_062020.nc | 01-Jan-2025 12:46 | 426185 | ||
| 46121_TS_DEWT_062022.nc | 01-Jan-2025 12:48 | 1474568 | ||
| 46121_TS_DEWT_062025.nc | 17-Jul-2025 04:52 | 1627580 | ||
| 46121_TS_DEWT_072016.nc | 01-Jan-2025 12:38 | 1627595 | ||
| 46121_TS_DEWT_072017.nc | 01-Jan-2025 12:41 | 904742 | ||
| 46121_TS_DEWT_072018.nc | 01-Jan-2025 12:42 | 1627838 | ||
| 46121_TS_DEWT_072019.nc | 01-Jan-2025 12:44 | 1465346 | ||
| 46121_TS_DEWT_072020.nc | 01-Jan-2025 12:46 | 1627273 | ||
| 46121_TS_DEWT_072022.nc | 01-Jan-2025 12:48 | 1627635 | ||
| 46121_TS_DEWT_072024.nc | 09-Jan-2025 12:04 | 1469685 | ||
| 46121_TS_DEWT_072025.nc | 01-Aug-2025 06:58 | 1627850 | ||
| 46121_TS_DEWT_082016.nc | 01-Jan-2025 12:38 | 1627755 | ||
| 46121_TS_DEWT_082017.nc | 01-Jan-2025 12:41 | 1472004 | ||
| 46121_TS_DEWT_082018.nc | 01-Jan-2025 12:42 | 1626228 | ||
| 46121_TS_DEWT_082019.nc | 01-Jan-2025 12:44 | 1626062 | ||
| 46121_TS_DEWT_082020.nc | 01-Jan-2025 12:47 | 1627659 | ||
| 46121_TS_DEWT_082022.nc | 01-Jan-2025 12:49 | 1627562 | ||
| 46121_TS_DEWT_082024.nc | 17-Jan-2025 07:05 | 1627524 | ||
| 46121_TS_DEWT_082025.nc | 01-Sep-2025 06:31 | 424107 | ||
| 46121_TS_DEWT_092016.nc | 01-Jan-2025 12:38 | 1477733 | ||
| 46121_TS_DEWT_092017.nc | 01-Jan-2025 12:41 | 1475264 | ||
| 46121_TS_DEWT_092018.nc | 01-Jan-2025 12:42 | 1474360 | ||
| 46121_TS_DEWT_092019.nc | 01-Jan-2025 12:45 | 917855 | ||
| 46121_TS_DEWT_092020.nc | 01-Jan-2025 12:47 | 1477762 | ||
| 46121_TS_DEWT_092022.nc | 01-Jan-2025 12:49 | 1477658 | ||
| 46121_TS_DEWT_092024.nc | 17-Jan-2025 07:05 | 1477857 | ||
| 46121_TS_DEWT_092025.nc | 01-Oct-2025 06:22 | 1477110 | ||
| 46121_TS_DEWT_102016.nc | 01-Jan-2025 12:39 | 1154008 | ||
| 46121_TS_DEWT_102017.nc | 01-Jan-2025 12:41 | 1477752 | ||
| 46121_TS_DEWT_102018.nc | 01-Jan-2025 12:43 | 1477979 | ||
| 46121_TS_DEWT_102019.nc | 01-Jan-2025 12:45 | 1467415 | ||
| 46121_TS_DEWT_102020.nc | 01-Jan-2025 12:47 | 1476447 | ||
| 46121_TS_DEWT_102022.nc | 01-Jan-2025 12:49 | 1477616 | ||
| 46121_TS_DEWT_102024.nc | 17-Jan-2025 07:06 | 1477773 | ||
| 46121_TS_DEWT_102025.nc | 01-Nov-2025 07:50 | 1477960 | ||
| 46121_TS_DEWT_112016.nc | 01-Jan-2025 12:39 | 1477695 | ||
| 46121_TS_DEWT_112017.nc | 01-Jan-2025 12:41 | 422946 | ||
| 46121_TS_DEWT_112018.nc | 01-Jan-2025 12:43 | 1627556 | ||
| 46121_TS_DEWT_112020.nc | 01-Jan-2025 12:47 | 1477255 | ||
| 46121_TS_DEWT_112021.nc | 01-Jan-2025 12:48 | 911235 | ||
| 46121_TS_DEWT_112022.nc | 01-Jan-2025 12:49 | 1627813 | ||
| 46121_TS_DEWT_112024.nc | 17-Jan-2025 16:47 | 1477880 | ||
| 46121_TS_DEWT_112025.nc | 02-Dec-2025 04:25 | 1627501 | ||
| 46121_TS_DEWT_122017.nc | 01-Jan-2025 12:41 | 1627594 | ||
| 46121_TS_DEWT_122018.nc | 01-Jan-2025 12:43 | 1627156 | ||
| 46121_TS_DEWT_122019.nc | 01-Jan-2025 12:45 | 1627824 | ||
| 46121_TS_DEWT_122021.nc | 01-Jan-2025 12:48 | 1627663 | ||
| 46121_TS_DEWT_122022.nc | 01-Jan-2025 12:49 | 1478718 | ||
| 46121_TS_DEWT_122024.nc | 22-Jan-2025 17:44 | 1627559 | ||
| 46121_TS_DEWT_122025.nc | 22-Dec-2025 05:41 | 1627380 | ||